Wind_Speed
16 15 14 12 11 11 9 8 7 5 9 12 17 20 15 14 18 19 15 13 19 16 17 16 17 15 13 15 16 16 16 18 20 20 19 20 22 23 21 16 15 15 16 13 14 13 14 17 17
15 16 15 15 12 12 7 8 7 8 9 12 12 17 16 15 19 16 18 17 18 17 17 16 17 15 14 15 16 14 15 15 16 19 21 21 22 20 20 18 14 15 16 14 15 13 12 16 18
13 15 16 17 17 14 14 12 11 10 10 17 18 16 14 11 11 13 16 21 17 17 18 18 16 15 16 15 17 18 17 18 14 17 19 20 22 20 19 19 14 15 15 13 15 15 13 14 16
10 13 14 15 18 20 21 22 18 16 11 12 14 14 13 11 7 12 20 25 19 21 21 18 14 15 17 18 19 19 17 16 15 15 18 17 20 19 18 20 17 13 14 13 12 15 15 12 12
11 13 13 12 15 18 19 23 24 20 19 16 12 13 9 8 9 21 28 25 24 23 21 17 16 15 16 18 15 14 14 15 14 17 18 16 19 20 18 18 18 14 14 11 12 14 15 14 13
8 11 12 11 12 14 17 17 23 21 18 15 10 10 9 8 15 29 29 28 27 24 20 16 17 17 16 17 15 14 16 18 13 14 18 15 15 18 19 18 18 15 17 16 13 12 15 13 14
11 11 10 11 11 13 13 16 19 24 20 17 22 18 13 8 5 14 28 22 27 26 23 17 18 16 16 16 15 15 15 14 14 13 15 14 14 14 17 17 17 16 12 16 14 11 11 13 12
9 9 10 11 12 11 12 15 16 19 20 23 22 19 19 17 18 20 16 21 25 27 22 16 15 15 13 13 14 15 14 12 11 9 9 10 11 12 13 15 15 14 13 12 10 11 10 11 12
8 6 8 10 12 12 10 14 14 17 18 19 19 20 16 16 15 13 15 14 23 26 22 18 13 11 11 10 11 12 12 10 8 7 8 7 9 11 10 11 12 13 13 13 13 10 9 11 12
9 7 7 9 12 12 11 9 11 12 13 14 15 15 14 13 14 13 6 10 17 24 24 19 13 9 9 8 9 8 9 8 8 11 12 11 10 11 7 6 8 10 11 11 11 9 10 11 12
9 10 9 9 9 8 9 10 10 9 11 11 10 12 14 11 9 9 12 18 16 20 22 15 10 7 7 6 8 6 7 8 7 5 8 7 10 9 7 7 5 8 8 8 9 9 10 7 4
14 12 12 13 10 8 10 7 9 10 10 7 8 5 9 12 10 9 9 10 14 12 12 9 7 5 6 7 8 4 5 5 6 7 8 9 6 8 7 8 5 8 7 7 7 7 7 7 9
16 14 16 15 11 10 9 10 9 8 9 6 5 6 5 9 10 8 4 2 5 6 5 5 9 9 4 5 7 3 2 2 2 3 6 7 6 6 5 5 9 9 6 5 6 8 8 7 5
17 14 15 16 13 11 10 9 11 10 8 6 4 2 2 3 4 5 6 6 3 1 2 3 6 5 3 1 3 3 1 2 1 1 1 5 6 4 3 4 6 8 7 5 4 5 7 7 7
19 18 18 18 16 15 12 11 11 10 10 9 8 5 1 2 3 5 5 4 4 4 4 4 4 5 3 3 2 2 2 3 3 3 3 4 3 4 5 4 5 6 5 3 3 3 3 6 7
16 18 18 16 15 15 16 15 14 12 9 8 7 6 4 3 1 2 4 4 3 5 6 7 6 7 8 9 6 4 6 6 5 6 4 6 3 1 5 3 3 2 2 4 2 5 5 6 6
14 16 14 13 14 12 13 14 17 15 14 14 12 6 2 1 0 1 1 2 3 6 8 10 10 10 10 10 9 6 7 7 5 5 6 6 5 8 3 1 2 2 1 4 4 5 6 8 4
16 13 10 9 10 13 14 16 16 16 14 13 10 10 7 4 2 2 3 1 2 3 6 7 10 12 12 10 9 5 7 5 4 6 2 7 9 8 3 1 1 4 5 6 4 6 10 7 4
12 11 7 8 10 11 11 12 11 10 12 12 10 8 8 7 6 5 2 2 2 4 6 8 8 7 7 6 5 6 8 5 5 8 7 6 11 7 2 1 3 5 6 6 5 8 10 10 6
18 9 3 1 10 10 7 8 1 7 9 10 12 10 9 10 7 4 5 3 2 2 5 4 5 6 5 4 6 7 8 6 8 9 9 2 3 2 2 2 4 5 6 6 0 9 9 8 5
15 14 11 8 10 11 7 5 4 6 7 9 9 8 7 9 9 6 5 5 1 2 6 5 3 3 2 2 4 7 8 10 12 11 10 6 4 1 2 3 4 6 8 9 6 6 8 6 2
17 16 15 11 10 10 9 8 8 6 5 5 8 9 7 7 9 8 4 4 3 3 4 4 4 3 3 2 4 5 7 11 12 13 11 10 6 4 3 4 4 6 7 10 9 9 8 4 1
24 21 18 15 11 14 9 11 12 8 3 5 10 10 7 8 7 9 7 5 3 3 3 5 3 2 3 4 4 5 7 10 13 11 10 11 8 4 4 2 2 5 7 8 7 5 5 3 1
30 25 21 17 13 13 17 14 15 9 3 5 12 14 11 9 8 9 10 4 3 4 4 4 7 7 6 5 5 5 6 6 8 9 9 10 10 7 5 2 1 5 6 7 7 6 4 2 2
32 27 24 20 16 9 11 12 16 8 5 2 8 13 8 7 8 10 12 11 8 5 2 1 6 7 7 6 6 6 6 5 6 5 9 12 10 9 5 5 1 3 4 7 7 6 6 6 5
34 31 25 22 19 16 18 14 16 12 9 3 5 12 11 6 6 10 14 15 13 8 6 4 6 8 9 8 11 11 10 9 7 7 8 10 10 7 6 5 3 0 2 3 4 5 4 4 6
35 37 27 26 25 25 23 14 23 19 15 10 8 8 7 5 7 9 14 15 14 11 13 9 6 7 11 12 13 15 14 13 13 12 10 11 10 8 7 6 4 3 2 3 5 5 6 7 8
36 33 34 32 31 28 23 23 21 19 16 14 6 13 12 14 12 7 9 11 12 11 9 10 9 7 13 14 14 15 15 15 16 18 17 12 10 11 8 6 5 2 1 2 5 6 8 11 13
33 35 36 33 34 30 27 23 19 18 22 17 8 12 10 11 10 14 10 11 9 9 8 12 9 6 12 10 13 13 16 18 16 19 18 15 11 9 6 4 2 1 1 2 5 6 10 15 18
32 32 35 35 32 30 31 26 17 18 25 18 11 14 12 12 12 11 14 14 3 3 6 10 13 15 12 14 12 11 12 14 16 16 20 16 15 10 6 4 2 2 3 5 5 4 1 9 15
Wind_Direction
79 70 75 79 105 127 143 150 154 142 129 140 138 134 150 152 162 156 144 142 124 126 119 115 108 106 103 94 82 79 81 81 75 70 70 75 70 67 64 59 65 68 68 81 94 99 105 106 111
83 80 80 79 87 103 134 141 140 138 138 128 129 157 150 161 165 165 154 142 122 131 119 119 116 113 103 95 90 86 86 88 78 75 70 71 73 68 63 65 69 76 75 80 96 101 107 109 114
89 89 82 84 87 96 93 92 102 109 126 136 168 152 169 174 185 179 159 141 121 127 122 118 114 110 105 95 93 95 86 83 76 77 74 68 70 69 65 63 70 83 82 74 91 101 111 104 110
88 95 87 85 86 82 87 89 96 115 132 147 155 173 179 176 190 176 144 129 129 126 123 122 114 113 110 100 98 93 82 77 80 73 76 71 71 71 67 60 61 85 86 83 85 100 111 114 107
90 94 94 89 86 84 82 89 83 89 109 125 135 161 161 181 179 162 141 136 133 128 125 129 119 107 108 101 97 88 75 68 82 76 73 76 74 76 71 67 60 82 73 91 97 102 111 111 114
105 112 101 95 89 88 87 89 93 83 86 119 146 147 150 127 168 153 150 143 141 134 129 126 113 107 107 105 103 87 80 75 70 67 74 77 71 78 72 72 66 75 79 84 98 100 102 119 123
97 97 105 104 93 85 90 86 85 87 69 89 100 89 88 87 177 201 156 145 141 134 119 122 115 109 108 107 102 95 89 79 72 71 68 75 78 73 75 71 73 74 87 81 86 93 110 102 115
92 93 95 100 105 95 86 94 85 80 78 70 80 95 92 102 107 134 133 150 138 125 121 117 118 121 116 105 98 97 95 86 75 73 66 82 81 73 76 77 76 79 81 86 102 84 114 114 113
110 110 105 101 98 104 98 96 90 79 79 81 76 78 86 91 88 125 135 145 143 130 127 122 121 116 105 99 93 95 99 93 84 66 81 71 96 90 80 83 86 85 81 83 105 99 91 119 121
120 116 113 116 104 105 111 106 96 86 82 85 79 88 86 84 88 69 150 165 137 144 136 128 126 124 114 97 82 88 98 98 95 81 81 83 131 97 99 101 105 100 99 96 96 102 105 115 120
88 107 102 99 111 108 102 104 106 102 95 96 103 104 113 104 97 109 60 139 103 140 123 123 123 127 117 102 88 93 108 108 115 78 95 99 108 105 97 109 136 132 123 115 119 100 117 142 126
79 85 86 85 96 103 101 105 97 97 95 98 125 122 108 128 129 94 79 71 64 73 75 101 107 97 118 101 97 105 116 119 117 94 86 115 101 95 94 100 99 145 136 142 143 136 143 129 116
76 73 81 86 89 94 96 100 100 95 98 104 118 153 183 164 159 150 130 85 91 119 144 159 147 122 102 87 92 86 88 126 154 161 111 120 108 107 97 105 108 123 127 153 154 146 153 152 137
88 83 86 90 91 92 93 94 95 93 91 99 107 124 176 212 201 197 196 186 194 226 188 196 164 177 163 140 84 64 318 22 265 246 153 138 126 118 101 111 110 107 120 147 166 165 173 183 189
108 101 97 94 97 101 102 93 85 83 94 101 96 83 232 240 199 191 193 183 187 226 243 242 232 221 235 270 306 326 319 343 306 223 185 169 175 255 154 130 103 91 92 99 190 215 189 188 202
116 115 107 100 105 104 99 95 87 80 70 69 88 101 109 108 139 172 179 164 202 220 236 240 242 234 228 245 262 298 306 277 276 242 202 195 220 187 151 86 75 82 191 8 319 219 214 201 217
136 125 118 109 106 109 102 94 88 83 70 52 38 47 48 57 17 61 114 150 199 235 243 241 239 239 250 263 269 273 282 262 254 252 243 212 176 151 174 98 43 357 360 317 297 247 210 210 231
159 151 152 137 111 105 99 101 89 68 47 42 32 30 33 18 344 40 92 150 288 290 280 269 258 254 253 263 260 265 263 238 234 218 220 241 187 166 138 208 342 324 324 308 264 231 209 196 201
179 178 166 158 139 122 107 119 95 62 52 28 19 8 17 18 16 16 57 92 20 334 311 312 296 237 229 239 250 262 262 231 209 194 150 130 116 91 88 284 345 351 342 313 261 217 206 188 198
209 195 142 127 156 160 146 159 87 65 51 23 13 356 5 9 1 1 347 8 53 320 289 286 274 242 242 242 239 239 246 228 216 184 153 121 108 79 57 332 360 359 4 7 222 199 184 185 166
196 207 225 213 176 178 178 187 114 76 33 16 14 2 3 356 348 350 350 339 39 289 270 253 229 214 239 241 225 219 222 201 199 199 187 193 187 208 311 346 25 22 34 44 94 145 154 161 186
198 205 202 210 191 180 170 151 152 119 57 1 330 352 1 352 344 346 338 271 201 189 242 223 212 203 162 177 198 194 194 198 193 202 206 212 206 189 266 325 20 37 41 60 80 104 119 126 180
199 209 215 214 224 217 193 176 176 172 151 348 348 333 348 342 338 328 320 299 271 185 226 231 175 179 180 186 193 172 183 200 200 203 221 213 219 212 237 296 357 41 43 53 69 92 101 116 92
213 217 217 223 232 247 234 196 192 218 143 23 354 342 311 311 312 302 309 290 278 219 209 225 199 186 192 187 188 175 190 209 215 206 215 211 210 201 206 237 24 47 46 33 29 40 46 49 45
211 219 220 220 224 219 217 208 209 220 170 356 339 326 309 292 302 291 284 291 293 236 211 255 258 242 227 215 219 197 187 206 235 224 219 231 221 194 214 203 95 47 2 26 24 11 2 359 350
212 212 218 227 229 229 240 233 205 217 230 234 314 321 303 277 289 301 294 300 308 298 287 247 265 258 253 249 236 230 216 210 213 219 225 235 224 211 217 213 195 289 27 35 27 12 346 330 323
220 209 215 229 236 242 238 222 208 210 228 250 280 290 288 247 321 317 308 308 295 324 321 295 305 313 292 261 237 229 225 223 221 220 219 227 226 227 236 234 208 213 292 318 358 344 341 330 314
225 217 222 227 240 247 249 238 215 225 237 243 268 300 240 271 289 299 295 293 312 347 23 5 327 339 319 281 252 242 233 225 224 221 213 211 218 229 229 236 238 237 324 321 329 341 318 298 289
229 227 224 229 239 246 255 248 250 234 229 238 232 283 255 277 285 294 276 276 295 335 336 332 326 275 304 309 260 254 252 249 234 225 215 209 213 223 220 214 199 179 305 298 300 320 315 318 298
226 226 233 238 242 250 260 256 268 222 219 224 217 259 256 286 268 281 285 302 295 308 335 329 310 251 232 240 253 256 257 252 246 245 213 204 212 214 203 201 141 129 253 264 278 308 21 3 354
Height
5898 5898 5896 5895 5897 5893 5892 5893 5893 5894 5896 5895 5897 5899 5901 5902 5905 5908 5909 5909 5911 5914 5915 5916 5917 5919 5920 5919 5918 5918 5919 5919 5918 5918 5917 5916 5914 5913 5912 5913 5913 5913 5911 5911 5910 5910 5910 5910 5912
5901 5900 5900 5900 5898 5896 5894 5892 5893 5894 5895 5896 5897 5901 5902 5904 5906 5907 5909 5911 5914 5917 5917 5919 5919 5921 5922 5922 5921 5922 5922 5922 5921 5920 5920 5919 5916 5916 5916 5915 5917 5916 5915 5915 5914 5914 5914 5915 5914
5904 5904 5904 5903 5901 5900 5897 5895 5894 5895 5896 5897 5900 5901 5904 5906 5906 5908 5910 5912 5916 5918 5920 5922 5924 5924 5924 5924 5923 5924 5924 5924 5925 5923 5921 5921 5919 5919 5918 5918 5919 5918 5918 5918 5917 5916 5918 5919 5918
5906 5907 5908 5907 5905 5902 5900 5899 5897 5896 5897 5898 5900 5903 5906 5907 5908 5909 5911 5913 5917 5919 5922 5924 5926 5927 5926 5927 5927 5927 5927 5927 5927 5927 5924 5924 5922 5921 5921 5920 5921 5921 5920 5921 5922 5920 5920 5922 5922
5908 5908 5909 5909 5908 5906 5906 5903 5902 5900 5899 5901 5903 5904 5906 5906 5907 5908 5911 5914 5917 5920 5923 5926 5927 5928 5930 5928 5929 5930 5930 5929 5929 5929 5927 5926 5926 5925 5925 5924 5924 5924 5924 5923 5924 5924 5924 5924 5924
5910 5912 5911 5911 5910 5909 5908 5908 5905 5905 5904 5902 5904 5904 5905 5906 5907 5908 5909 5912 5916 5920 5924 5927 5928 5931 5931 5931 5931 5932 5931 5930 5931 5931 5930 5930 5929 5928 5928 5927 5927 5927 5927 5926 5927 5928 5927 5927 5927
5912 5913 5914 5914 5913 5912 5912 5910 5909 5907 5909 5906 5904 5904 5907 5907 5909 5910 5911 5913 5916 5921 5925 5929 5930 5932 5932 5932 5932 5932 5932 5931 5932 5933 5932 5933 5932 5932 5931 5931 5931 5931 5930 5930 5930 5930 5931 5932 5931
5916 5916 5916 5916 5915 5915 5915 5913 5913 5912 5912 5911 5908 5908 5911 5912 5912 5913 5916 5918 5919 5922 5926 5929 5931 5932 5933 5933 5933 5934 5933 5933 5933 5934 5934 5935 5935 5934 5933 5934 5933 5934 5934 5932 5933 5933 5933 5933 5935
5916 5918 5918 5918 5917 5917 5917 5917 5916 5915 5914 5914 5913 5913 5914 5914 5917 5918 5919 5921 5922 5924 5926 5929 5932 5932 5933 5933 5934 5934 5935 5934 5932 5934 5935 5936 5936 5937 5936 5936 5935 5935 5935 5936 5936 5937 5936 5935 5936
5919 5919 5920 5920 5918 5918 5919 5919 5918 5919 5918 5917 5917 5916 5917 5919 5919 5921 5923 5924 5924 5926 5928 5930 5931 5932 5933 5933 5934 5935 5935 5934 5934 5935 5935 5937 5936 5937 5938 5938 5937 5937 5937 5938 5939 5939 5939 5939 5939
5920 5921 5921 5921 5921 5921 5921 5920 5920 5920 5920 5919 5920 5920 5920 5921 5922 5923 5924 5926 5926 5927 5930 5932 5933 5933 5934 5933 5934 5934 5935 5935 5936 5936 5936 5937 5937 5938 5937 5937 5937 5937 5938 5938 5939 5940 5940 5940 5941
5924 5923 5923 5923 5923 5923 5922 5923 5922 5922 5922 5922 5923 5923 5923 5923 5924 5924 5927 5929 5928 5930 5932 5934 5935 5935 5936 5935 5935 5935 5935 5935 5936 5937 5936 5937 5938 5937 5937 5937 5937 5937 5938 5939 5939 5940 5941 5942 5942
5926 5926 5925 5924 5925 5925 5925 5925 5924 5924 5924 5925 5925 5925 5926 5926 5927 5926 5928 5929 5930 5931 5933 5935 5936 5937 5938 5937 5937 5937 5937 5937 5937 5937 5937 5937 5938 5938 5938 5938 5938 5938 5938 5939 5940 5941 5941 5941 5942
5930 5928 5927 5926 5927 5928 5928 5927 5926 5926 5926 5927 5927 5927 5928 5930 5929 5929 5929 5929 5930 5930 5932 5934 5936 5938 5939 5939 5939 5939 5938 5938 5938 5938 5938 5938 5937 5939 5939 5939 5939 5938 5938 5939 5939 5940 5940 5941 5941
5932 5932 5931 5930 5930 5931 5930 5929 5928 5927 5928 5928 5928 5928 5929 5930 5931 5930 5930 5929 5929 5930 5932 5934 5936 5937 5938 5938 5939 5939 5939 5938 5938 5938 5938 5938 5938 5938 5939 5939 5939 5938 5939 5939 5939 5939 5939 5940 5941
5934 5934 5934 5934 5934 5934 5933 5932 5931 5929 5929 5929 5929 5929 5930 5930 5930 5930 5931 5931 5931 5931 5932 5933 5934 5936 5937 5937 5938 5938 5938 5938 5938 5938 5937 5938 5938 5937 5938 5939 5939 5938 5938 5938 5937 5937 5937 5938 5939
5934 5934 5934 5935 5936 5936 5936 5935 5933 5932 5930 5929 5929 5931 5931 5930 5930 5931 5931 5931 5933 5933 5934 5934 5934 5934 5934 5935 5936 5936 5937 5938 5938 5938 5938 5937 5937 5936 5937 5939 5939 5939 5938 5937 5936 5935 5935 5935 5937
5934 5935 5934 5934 5937 5937 5938 5937 5936 5935 5934 5932 5931 5932 5932 5931 5931 5932 5932 5931 5931 5933 5934 5934 5935 5933 5932 5932 5933 5934 5935 5936 5937 5937 5936 5935 5935 5935 5937 5938 5939 5939 5937 5935 5934 5934 5933 5934 5935
5934 5934 5935 5936 5937 5938 5938 5939 5938 5937 5935 5934 5932 5932 5932 5932 5932 5932 5930 5930 5930 5931 5931 5932 5932 5931 5930 5930 5930 5931 5932 5933 5935 5936 5935 5935 5934 5936 5937 5937 5937 5936 5936 5934 5932 5932 5932 5933 5935
5933 5935 5935 5936 5936 5937 5938 5939 5939 5938 5937 5936 5934 5932 5931 5931 5931 5929 5928 5929 5929 5929 5929 5930 5931 5930 5928 5928 5928 5929 5930 5931 5934 5936 5935 5936 5936 5936 5936 5937 5936 5936 5935 5932 5930 5932 5931 5933 5934
5933 5935 5934 5936 5936 5936 5937 5938 5937 5938 5937 5936 5935 5933 5932 5931 5931 5930 5929 5929 5929 5930 5931 5930 5930 5928 5927 5927 5927 5927 5928 5930 5932 5934 5935 5936 5937 5937 5937 5938 5938 5936 5935 5932 5932 5932 5933 5934 5935
5931 5932 5932 5933 5936 5937 5937 5938 5938 5938 5938 5937 5935 5933 5932 5931 5931 5930 5930 5930 5929 5929 5930 5930 5930 5928 5926 5926 5926 5926 5927 5928 5929 5930 5934 5936 5937 5937 5939 5938 5938 5937 5936 5936 5935 5934 5934 5935 5935
5928 5929 5932 5933 5935 5936 5937 5938 5939 5939 5938 5938 5936 5934 5932 5931 5930 5931 5930 5929 5929 5929 5929 5930 5929 5929 5928 5927 5927 5926 5926 5927 5929 5929 5931 5935 5937 5937 5938 5939 5939 5938 5937 5937 5937 5937 5936 5936 5937
5922 5926 5929 5931 5933 5934 5935 5938 5939 5939 5939 5939 5937 5935 5933 5932 5930 5929 5930 5931 5930 5929 5928 5928 5927 5927 5927 5927 5928 5927 5927 5928 5929 5929 5930 5933 5935 5938 5938 5940 5940 5940 5940 5939 5939 5939 5939 5940 5939
5919 5922 5926 5929 5931 5934 5934 5936 5938 5938 5938 5937 5937 5934 5932 5931 5930 5929 5929 5930 5930 5929 5929 5928 5928 5929 5927 5927 5929 5928 5926 5926 5928 5930 5931 5932 5934 5936 5937 5938 5940 5941 5941 5941 5941 5941 5941 5940 5939
5914 5918 5921 5924 5927 5931 5930 5934 5935 5936 5936 5935 5934 5933 5932 5930 5929 5929 5928 5928 5929 5930 5929 5928 5927 5928 5927 5928 5929 5927 5926 5925 5926 5928 5930 5931 5932 5934 5936 5937 5939 5940 5941 5941 5941 5941 5940 5939 5938
5909 5911 5918 5919 5921 5923 5927 5930 5932 5933 5933 5933 5932 5931 5930 5930 5928 5928 5927 5927 5927 5928 5928 5928 5928 5927 5927 5926 5924 5923 5924 5925 5925 5926 5927 5930 5932 5932 5934 5936 5937 5939 5941 5941 5940 5940 5939 5938 5936
5902 5910 5913 5914 5916 5919 5922 5925 5929 5930 5930 5930 5929 5929 5929 5928 5927 5927 5926 5925 5926 5928 5928 5927 5926 5926 5926 5926 5924 5922 5921 5921 5922 5923 5925 5928 5931 5931 5933 5935 5937 5939 5939 5939 5937 5937 5936 5934 5932
5897 5901 5906 5910 5912 5914 5916 5920 5924 5926 5926 5927 5927 5927 5928 5927 5925 5923 5923 5923 5926 5926 5927 5926 5924 5922 5922 5924 5924 5923 5921 5920 5919 5920 5923 5926 5928 5931 5932 5933 5936 5937 5937 5936 5934 5935 5933 5932 5929
5891 5897 5902 5905 5909 5910 5910 5913 5917 5919 5920 5924 5925 5924 5926 5926 5924 5922 5921 5922 5924 5924 5924 5922 5921 5916 5916 5916 5920 5921 5921 5919 5917 5918 5919 5923 5925 5929 5932 5931 5933 5934 5934 5933 5932 5931 5930 5928 5927